| time (UTC) | temp C | wind direction | speed KPH | gust KPH | rain 1hr cm | rain 24hr cm | rain mn cm | humidity % | barometer mb |
| 20260505124554 | 11 | 117 | 12.9 | 25.7 | 0.00 | 0.00 | 0.00 | 74 | 1004.4 |
| 20260505123053 | 11 | 135 | 11.3 | 24.1 | 0.00 | 0.00 | 0.00 | 77 | 1004.4 |
| 20260505121539 | 10 | 257 | 9.7 | 22.5 | 0.00 | 0.00 | 0.00 | 79 | 1004.4 |
| 20260505120057 | 9 | 128 | 8.0 | 22.5 | 0.00 | 0.00 | 0.00 | 82 | 1004.6 |
| 20260505114516 | 8 | 188 | 8.0 | 22.5 | 0.00 | 0.00 | 0.00 | 85 | 1005.0 |
| 20260505113016 | 7 | 142 | 8.0 | 24.1 | 0.00 | 0.00 | 0.00 | 87 | 1005.2 |
| 20260505111558 | 7 | 167 | 8.0 | 19.3 | 0.00 | 0.00 | 0.00 | 87 | 1005.4 |
| 20260505101523 | 6 | 147 | 9.7 | 25.7 | 0.00 | 0.00 | 0.00 | 90 | 1005.2 |
| 20260505100025 | 5 | 197 | 9.7 | 22.5 | 0.00 | 0.00 | 0.00 | 91 | 1005.3 |
| 20260505094502 | 5 | 175 | 6.4 | 12.9 | 0.00 | 0.00 | 0.00 | 91 | 1005.4 |
| 20260505093002 | 5 | 182 | 6.4 | 16.1 | 0.00 | 0.00 | 0.00 | 91 | 1005.3 |
| 20260505091546 | 4 | 153 | 6.4 | 12.9 | 0.00 | 0.00 | 0.00 | 91 | 1005.4 |
| 20260505090046 | 5 | 176 | 8.0 | 12.9 | 0.00 | 0.00 | 0.00 | 90 | 1005.4 |
| 20260505084524 | 5 | 158 | 8.0 | 16.1 | 0.00 | 0.00 | 0.00 | 89 | 1005.5 |
| 20260505083023 | 5 | 158 | 0.0 | 11.3 | 0.00 | 0.00 | 0.00 | 88 | 1005.8 |
| 20260505081510 | 5 | 144 | 1.6 | 17.7 | 0.00 | 0.00 | 0.00 | 88 | 1005.8 |
| 20260505080005 | 5 | 161 | 4.8 | 14.5 | 0.00 | 0.00 | 0.00 | 87 | 1006.0 |
| 20260505074549 | 6 | 136 | 6.4 | 14.5 | 0.00 | 0.00 | 0.00 | 86 | 1006.0 |
| 20260505073101 | 6 | 194 | 6.4 | 11.3 | 0.00 | 0.00 | 0.00 | 88 | 1006.0 |
| 20260505071528 | 6 | 207 | 1.6 | 11.3 | 0.00 | 0.00 | 0.00 | 88 | 1006.1 |
| 20260505070028 | 5 | 202 | 4.8 | 11.3 | 0.00 | 0.00 | 0.00 | 89 | 1006.1 |
| 20260505064532 | 5 | 201 | 4.8 | 12.9 | 0.00 | 0.00 | 0.00 | 90 | 1006.2 |
| 20260505063014 | 5 | 194 | 6.4 | 8.0 | 0.00 | 0.00 | 0.00 | 90 | 1006.1 |
| 20260505061528 | 6 | 187 | 3.2 | 8.0 | 0.00 | 0.00 | 0.00 | 89 | 1006.2 |
| 20260505060013 | 5 | 211 | 4.8 | 9.7 | 0.00 | 0.00 | 0.00 | 90 | 1006.4 |
| 20260505054512 | 5 | 191 | 6.4 | 11.3 | 0.00 | 0.00 | 0.00 | 89 | 1006.3 |
| 20260505053011 | 5 | 193 | 1.6 | 8.0 | 0.00 | 0.00 | 0.00 | 89 | 1006.1 |
| 20260505051510 | 6 | 192 | 1.6 | 9.7 | 0.00 | 0.00 | 0.00 | 88 | 1006.1 |
| 20260505041533 | 6 | 209 | 4.8 | 11.3 | 0.00 | 0.00 | 0.00 | 87 | 1006.4 |
| 20260505040032 | 5 | 193 | 9.7 | 11.3 | 0.00 | 0.00 | 0.00 | 87 | 1006.4 |
| 20260505034513 | 6 | 200 | 6.4 | 11.3 | 0.00 | 0.00 | 0.00 | 87 | 1006.2 |
| 20260505033013 | 5 | 196 | 6.4 | 11.3 | 0.00 | 0.00 | 0.00 | 86 | 1006.1 |
| 20260505031609 | 5 | 207 | 6.4 | 9.7 | 0.00 | 0.00 | 0.00 | 86 | 1006.1 |
| 20260505030054 | 5 | 212 | 9.7 | 11.3 | 0.00 | 0.00 | 0.00 | 86 | 1006.2 |
| 20260505024540 | 5 | 209 | 8.0 | 14.5 | 0.00 | 0.00 | 0.00 | 86 | 1006.0 |
| 20260505023035 | 5 | 220 | 9.7 | 12.9 | 0.00 | 0.00 | 0.00 | 86 | 1006.0 |
| 20260505021520 | 5 | 210 | 9.7 | 11.3 | 0.00 | 0.00 | 0.00 | 86 | 1006.0 |
| 20260505020027 | 5 | 209 | 11.3 | 14.5 | 0.00 | 0.00 | 0.00 | 85 | 1006.1 |
| 20260505014605 | 5 | 219 | 8.0 | 11.3 | 0.00 | 0.00 | 0.00 | 85 | 1005.8 |
| 20260505013107 | 5 | 227 | 8.0 | 12.9 | 0.00 | 0.05 | 0.00 | 84 | 1005.6 |
| 20260505011536 | 5 | 233 | 8.0 | 14.5 | 0.00 | 0.05 | 0.00 | 83 | 1005.6 |
| 20260505010034 | 5 | 227 | 6.4 | 14.5 | 0.00 | 0.05 | 0.00 | 82 | 1005.5 |
| 20260505004533 | 5 | 212 | 9.7 | 14.5 | 0.00 | 0.05 | 0.00 | 82 | 1005.5 |
| 20260505003011 | 6 | 215 | 4.8 | 12.9 | 0.00 | 0.08 | 0.00 | 80 | 1005.2 |
| 20260505001555 | 6 | 242 | 6.4 | 19.3 | 0.00 | 0.08 | 0.00 | 80 | 1005.0 |
| 20260505000106 | 6 | 247 | 9.7 | 14.5 | 0.00 | 0.08 | 0.00 | 79 | 1004.6 |
| 20260504234529 | 7 | 279 | 8.0 | 20.9 | 0.00 | 0.08 | 0.00 | 78 | 1004.4 |
| 20260504233026 | 7 | 244 | 11.3 | 19.3 | 0.00 | 0.10 | 0.00 | 77 | 1004.0 |
| 20260504231507 | 7 | 248 | 8.0 | 19.3 | 0.00 | 0.10 | 0.00 | 77 | 1003.9 |
| 20260504230006 | 8 | 252 | 9.7 | 14.5 | 0.00 | 0.10 | 0.00 | 75 | 1003.7 |
| 20260504224548 | 8 | 256 | 16.1 | 24.1 | 0.00 | 0.10 | 0.00 | 74 | 1003.7 |
| 20260504223047 | 8 | 269 | 9.7 | 25.7 | 0.00 | 0.13 | 0.00 | 74 | 1003.5 |
| 20260504221532 | 8 | 253 | 19.3 | 27.4 | 0.00 | 0.13 | 0.00 | 74 | 1003.5 |
| 20260504220029 | 8 | 255 | 11.3 | 25.7 | 0.00 | 0.13 | 0.00 | 73 | 1003.6 |
| 20260504214518 | 8 | 255 | 16.1 | 29.0 | 0.00 | 0.13 | 0.00 | 75 | 1003.4 |
| 20260504213016 | 8 | 238 | 16.1 | 25.7 | 0.00 | 0.15 | 0.00 | 75 | 1003.3 |
| 20260504211514 | 8 | 257 | 14.5 | 22.5 | 0.00 | 0.15 | 0.00 | 75 | 1003.2 |
| 20260504210021 | 8 | 253 | 19.3 | 25.7 | 0.00 | 0.15 | 0.00 | 75 | 1003.1 |
| 20260504204513 | 9 | 252 | 14.5 | 24.1 | 0.00 | 0.15 | 0.00 | 72 | 1003.0 |
| 20260504203012 | 8 | 266 | 12.9 | 19.3 | 0.00 | 0.18 | 0.00 | 73 | 1003.0 |
| 20260504201513 | 8 | 257 | 11.3 | 17.7 | 0.00 | 0.18 | 0.00 | 73 | 1003.2 |
| 20260504200011 | 8 | 284 | 8.0 | 17.7 | 0.00 | 0.18 | 0.00 | 74 | 1003.1 |
| 20260504194553 | 7 | 325 | 9.7 | 14.5 | 0.00 | 0.18 | 0.00 | 73 | 1003.3 |
| 20260504193051 | 7 | 327 | 9.7 | 19.3 | 0.00 | 0.28 | 0.00 | 72 | 1003.3 |
| 20260504191539 | 7 | 343 | 12.9 | 22.5 | 0.00 | 0.28 | 0.00 | 71 | 1003.3 |
| 20260504190032 | 8 | 289 | 14.5 | 24.1 | 0.00 | 0.28 | 0.00 | 68 | 1003.3 |
| 20260504184515 | 8 | 304 | 11.3 | 24.1 | 0.00 | 0.28 | 0.00 | 65 | 1003.4 |
| 20260504183013 | 8 | 302 | 9.7 | 29.0 | 0.00 | 0.33 | 0.00 | 64 | 1003.3 |
| 20260504181557 | 10 | 238 | 11.3 | 22.5 | 0.00 | 0.33 | 0.00 | 55 | 1003.0 |
| 20260504180059 | 10 | 257 | 17.7 | 33.8 | 0.00 | 0.33 | 0.00 | 54 | 1002.9 |
| 20260504174535 | 10 | 345 | 14.5 | 33.8 | 0.00 | 0.33 | 0.00 | 50 | 1002.8 |
| 20260504173037 | 11 | 229 | 17.7 | 25.7 | 0.00 | 0.38 | 0.00 | 47 | 1002.5 |
| 20260504171517 | 11 | 313 | 17.7 | 29.0 | 0.00 | 0.38 | 0.00 | 43 | 1002.3 |